Regional Weather Roundup
Issued by NWS Goodland, KS

Home | Current Version | Previous Version | Graphics & Text | Print | Product List | Glossary On
Versions: 1 2 3 4 5 6 7 8 9 10 11 12 13 14 15 16 17 18 19 20 21 22 23 24 25 26 27 28 29 30 31 32 33 34 35 36 37 38 39 40 41 42 43 44 45 46 47 48 49 50
000
ASUS43 KGLD 032159
RWRGLD

GOODLAND FORECAST AREA HOURLY WEATHER ROUNDUP
NATIONAL WEATHER SERVICE GOODLAND KS
400 PM MDT THU SEP 03 2015

...OFFICIAL OBSERVATIONS...

CITY           SKY/WX    TMP DP  RH WIND       PRES   REMARKS
GOODLAND KS    PTSUNNY   94  46  19 S15       29.81F
HILL CITY KS   PTSUNNY   99  55  23 S16G31    29.75F
IMPERIAL NEB   CLOUDY    94  52  24 SW6       29.78F
MCCOOK NEB     PTSUNNY   98  55  23 SE14G22   29.73F
AKRON CO       MOSUNNY   89  41  18 MISG      29.89F
BURLINGTON CO  CLOUDY    91  45  20 S12G21    29.85F
LIMON CO       PTSUNNY   84  44  24 N10       29.94F
$$

...UNOFFICIAL OBSERVATIONS...

CITY           SKY/WX    TMP DP  RH WIND       PRES   REMARKS
COLBY KS       SUNNY     97  59  28 SE20G25   29.81S
GOVE KS          N/A     95  32  11 MISG        N/A
LENORA KS        N/A     96  32  10 MISG        N/A
NORTON KS      SUNNY     95  50  21 S16       29.74F
KIT CARSON CO    N/A     95  49  20 MISG        N/A
$$


USA.gov is the U.S. government's official web portal to all federal, state and local government web resources and services.